Simultaneous Nadir Overpasses (SNOs) Predictions

Prediction of SNOs between GOES-15 and NPP Satellite Orbit:

Table of predicted SNOs for the next 14.0 days since TLE Epoch: 10/12/2012
Index Date Time (GOES-15) GOES-15 Lat,Lon NPP Lat,Lon Distance(km) Time Diff (sec)
1 10/13/2012 22:25:23 -0.20,-135.37 -0.33,-135.88 58.37 80
2 10/14/2012 22:09:22 -0.21,-135.36 0.70,-131.36 456.28 80
3 10/16/2012 10:28:35 0.18,-135.38 0.46,-136.66 145.89 80
4 10/17/2012 10:12:35 0.20,-135.36 -0.55,-132.14 367.15 80
5 10/18/2012 22:31:59 -0.16,-135.30 -0.62,-137.48 248.60 80
6 10/19/2012 22:16:00 -0.18,-135.28 0.36,-132.97 263.57 80
7 10/21/2012 10:35:18 0.14,-135.29 0.79,-138.29 341.59 80
8 10/22/2012 10:19:19 0.16,-135.26 -0.16,-133.78 169.40 80
9 10/23/2012 22:38:48
